[Iaude] MPEC M32: 2020 MM [a=1.44,e=0.27,i=4.6,H=25.1]

mpec at marsden.cfa.harvard.edu mpec at marsden.cfa.harvard.edu
Fri Jun 19 07:43:09 EDT 2020


M.P.E.C. 2020-M32                                 Issued 2020 June 19, 11:41 UT

     The Minor Planet Electronic Circulars contain information on unusual
         minor planets and routine data on comets.  They are published
    on behalf of Division F of the International Astronomical Union by the
          Minor Planet Center, Smithsonian Astrophysical Observatory,
                          Cambridge, MA 02138, U.S.A.

             Prepared using the Tamkin Foundation Computer Network

                              MPC at CFA.HARVARD.EDU
            URL https://www.minorplanetcenter.net/    ISSN 1523-6714

                                    2020 MM                                     


Observations:
     K20M00M* C2020 06 17.45688517 11 53.938+08 54 00.62         22.44wUEM032F51
     K20M00M  C2020 06 17.46881517 11 54.083+08 54 37.49         22.18wUEM032F51
     K20M00M  C2020 06 17.48069117 11 54.251+08 55 14.80         22.10wUEM032F51
     K20M00M ^C2020 06 18.56825517 12 34.404+09 52 22.61         21.97GVEM032568
     K20M00M ^C2020 06 18.57119217 12 34.504+09 52 32.04         21.81GVEM032568
     K20M00M ^C2020 06 18.57434117 12 34.583+09 52 41.79         22.61GVEM032568
     K20M00M KC2020 06 19.15612417 13 03.27 +10 23 13.9          22.5 VuEM032H21
     K20M00M KC2020 06 19.16220817 13 03.41 +10 23 33.5          22.3 VuEM032H21
     K20M00M KC2020 06 19.16849517 13 03.54 +10 23 53.6          22.3 VuEM032H21

Observer details:
568 Mauna Kea.  Observers R. Wainscoat, H. Januszewski, T. Burdullis.
    Measurers R. Weryk, R. Wainscoat.  3.6-m Canada-France-Hawaii Telescope +
    CCD.
F51 Pan-STARRS 1, Haleakala.  Observers J. Bulger, T. Lowe, A. Schultz, M.
    Willman.  Measurers K. Chambers, S. Chastel, T. de Boer, L. Denneau, J.
    Fairlamb, H. Flewelling, M. Huber, C.-C. Lin, E. Magnier, Y. Ramanjooloo,
    R. Wainscoat, R. Weryk.  1.8-m Ritchey-Chretien + CCD.
H21 Astronomical Research Observatory, Westfield.  Observer R. Holmes.
    Measurers S. Foglia, L. Buzzi, T. Linder, R. Holmes.  1.3-m f/4.0
    astrograph + CCD.

Orbital elements:
2020 MM                                                  Earth MOID = 0.0897 AU
Epoch 2020 May 31.0 TT = JDT 2459000.5                  Veres
M 322.21748              (2000.0)            P               Q
n   0.57083140     Peri.   99.40591     +0.68178307     +0.73020694
a   1.4392320      Node   213.71470     -0.69865228     +0.63193083
e   0.2682699      Incl.    4.58611     -0.21692586     +0.25973304
P   1.73           H   25.1           G   0.15           U   7
Residuals in seconds of arc
200617 F51  0.0   0.1+    200618 568  0.2-  0.2-    200619 H21  0.1-  0.0
200617 F51  0.1-  0.2-    200618 568  0.1+  0.1+    200619 H21  0.1+  0.0
200617 F51  0.1+  0.1+    200618 568  0.1+  0.1+    200619 H21  0.1+  0.0

Ephemeris:
2020 MM                  a,e,i = 1.44, 0.27, 5                   q = 1.0531
Date    TT    R. A. (2000) Decl.     Delta      r    Elong.  Phase     V
2020 05 20    16 59 50.5 -10 49 52   0.2275  1.2286   160.4    16.0    23.2
...
2020 06 04    17 05 47.0 -01 49 53   0.1696  1.1744   159.0    18.0    22.5
...
2020 06 12    17 09 00.1 +04 17 23   0.1472  1.1479   152.4    24.2    22.4
...
2020 06 18    17 12 15.7 +09 22 40   0.1337  1.1296   146.2    30.1    22.3
2020 06 19    17 12 55.5 +10 15 27   0.1318  1.1267   145.1    31.1    22.3
2020 06 20    17 13 37.9 +11 08 41   0.1299  1.1239   144.0    32.1    22.3
...
2020 06 26    17 19 00.8 +16 35 05   0.1197  1.1076   137.4    38.4    22.3
...
2020 07 04    17 30 22.8 +23 59 03   0.1093  1.0888   129.0    46.5    22.2
...
2020 07 19    18 11 07.9 +37 17 30   0.09646 1.0635   117.0    58.4    22.3

M. P. C. Staff               (C) Copyright 2020 MPC           M.P.E.C. 2020-M32




More information about the Iaude mailing list